#timestamp,LO_Frequency,Hit 
1503313215.2,286047003.0,N
1503313235.0,286047000.8,N
1503313235.9,286047000.8,N
1503313255.7,286046998.3,N
1503313275.6,286047002.3,N
1503313295.4,286047002.9,N
1503313315.2,286047005.2,N
1503313335.1,286047005.2,N
1503313336.0,286047005.2,N
1503313355.8,286047005.0,N
1503313375.6,286047006.6,N
1503313395.5,286047007.3,N
1503313415.3,286047010.8,P
1503313435.1,286047004.7,N
1503313455.9,286047010.1,N
1503313475.7,286047009.4,N
1503313495.5,286047008.3,N
1503313515.4,286047009.0,N
1503313535.2,286047005.4,N
1503313555.0,286047001.5,N
1503313555.9,286047001.5,N
1503313575.8,286046999.3,N
1503313595.6,286046997.4,N
1503313615.4,286046993.4,N
1503313635.3,286046996.1,N
1503313655.1,286046997.0,N
1503313656.0,286046997.0,N
1503313675.8,286046995.8,N
1503313695.6,286046999.6,N
1503313715.5,286047002.1,N
1503313735.3,286047002.6,N
1503313755.1,286047000.6,N
1503313775.9,286047001.6,N
1503313795.7,286047002.6,N
1503313815.5,286046998.6,N
1503313835.4,286046995.4,N
1503313855.2,286046995.8,N
1503313875.0,286046997.8,N
1503313875.9,286046997.8,N
1503313895.8,286046997.2,N
1503313915.6,286046995.0,N
1503313935.4,286046994.9,N
1503313955.3,286046997.8,N
1503313975.1,286046997.9,N
1503313976.0,286046997.9,N
1503313995.8,286047001.2,N
1503314015.7,286047000.8,N
1503314035.5,286046996.7,N
1503314055.3,286046999.0,N
1503314075.2,286046999.5,N
1503314095.9,286046993.4,N
1503314115.7,286046997.5,N
1503314135.5,286046999.6,N
1503314155.4,286046995.5,N
1503314175.2,286047001.0,N
1503314195.0,286046996.9,N
1503314195.9,286046996.9,N
1503314215.8,286046993.3,N
1503314235.6,286046999.6,N
1503314255.4,286046997.7,N
1503314275.3,286046995.4,N
1503314295.1,286046996.0,N
1503314296.0,286046996.0,N
1503314315.8,286046995.2,N
1503314335.7,286046996.0,N
1503314355.5,286046991.7,P
1503314375.3,286046999.6,N
1503314395.2,286047001.0,N
1503314415.9,286046999.8,N
1503314435.7,286047000.5,N
1503314455.6,286047002.3,N
1503314475.4,286047002.5,N
1503314495.2,286047001.3,N
1503314515.1,286047005.7,N
1503314516.0,286047005.7,N
1503314535.8,286047007.1,N
1503314555.6,286047002.1,N
1503314575.5,286046999.8,N
1503314595.3,286047000.2,N
1503314615.1,286047000.8,N
1503314635.8,286047000.0,N
1503314655.7,286047006.0,N
1503314675.5,286047004.2,N
1503314695.3,286046999.2,N
1503314715.2,286046997.8,N
1503314735.0,286046996.7,N
1503314735.9,286046996.7,N
1503314755.7,286046995.0,N
1503314775.6,286046995.4,N
1503314795.4,286046996.8,N
1503314815.2,286046999.5,N
1503314835.1,286046999.4,N
1503314836.0,286046999.4,N
1503314855.8,286046999.3,N
1503314875.6,286046997.5,N
1503314895.5,286046999.3,N
1503314915.3,286046999.5,N
1503314935.1,286047000.8,N
1503314955.9,286046998.6,N
1503314975.7,286046998.8,N
1503314995.5,286047001.4,N
1503315015.4,286047000.1,N
1503315035.2,286047000.9,N
1503315055.0,286046996.7,N
1503315055.9,286046996.7,N
1503315075.8,286046995.6,N
1503315095.6,286046994.0,N
1503315115.4,286046994.3,N
1503315135.2,286046993.8,N
1503315155.1,286046995.6,N
1503315156.0,286046995.6,N
1503315175.8,286046995.3,N
1503315195.6,286046994.7,N
1503315215.5,286046992.4,P
1503315235.3,286046997.1,N
1503315255.1,286046996.8,N
1503315275.9,286046995.0,N
1503315295.7,286046997.5,N
1503315315.5,286046999.5,N
1503315335.4,286046999.6,N
1503315355.2,286046995.3,N
1503315375.0,286046996.7,N
1503315375.9,286046996.7,N
1503315395.8,286047000.1,N
1503315415.6,286046998.5,N
1503315435.4,286046998.7,N
1503315455.3,286047002.6,N
1503315475.1,286047001.7,N
1503315476.0,286047001.7,N
1503315495.8,286047002.5,N
1503315515.7,286047000.1,N
1503315535.5,286047002.2,N
1503315555.3,286047000.2,N
1503315575.2,286047000.1,N
1503315595.9,286047004.0,N
1503315615.7,286047002.8,N
1503315635.5,286047003.5,N
1503315655.4,286047007.2,N
1503315675.2,286047005.1,N
1503315695.0,286047004.3,N
1503315695.9,286047004.3,N
1503315715.8,286047005.6,N
1503315735.6,286047005.2,N
1503315755.4,286047005.9,N
1503315775.3,286047005.7,N
1503315795.1,286047007.0,N
1503315815.8,286047005.6,N
1503315835.7,286047001.9,N
1503315855.5,286047003.0,N
1503315875.3,286047004.0,N
1503315895.2,286047001.5,N
1503315915.9,286047000.2,N
1503315935.7,286046999.7,N
1503315955.6,286047004.3,N
1503315975.4,286047000.1,N
1503315995.2,286047004.3,N
1503316015.0,286047003.4,N
1503316016.0,286047003.4,N
1503316035.8,286047006.1,N
1503316055.6,286047008.5,P
1503316075.5,286047005.8,N
1503316095.3,286047004.0,N
1503316115.1,286047007.5,P
1503316135.9,286047000.8,N
1503316155.7,286047003.6,N
1503316175.5,286047001.3,N
1503316195.4,286047002.1,N
1503316215.2,286047003.5,N
1503316235.0,286047000.8,N
1503316235.9,286047000.8,N
1503316255.8,286047002.2,N
1503316275.6,286047001.5,N
1503316295.4,286047002.5,N
1503316315.2,286047001.6,N
1503316335.1,286047004.8,N
1503316336.0,286047004.8,N
1503316355.8,286047004.5,N
1503316375.7,286047006.7,P
1503316395.5,286047003.3,N
1503316415.3,286047004.5,N
1503316435.2,286047005.9,P
1503316455.9,286046999.1,N
1503316475.7,286046998.4,N
1503316495.6,286046996.8,N
1503316515.4,286046997.6,N
1503316535.2,286046996.6,N
1503316555.1,286046998.8,N
1503316556.0,286046998.8,N
1503316575.8,286046997.9,N
1503316595.6,286046996.8,N
1503316615.5,286046991.8,N
1503316635.3,286046993.0,N
1503316655.1,286046994.8,N
1503316675.8,286046990.2,N
1503316695.7,286046992.7,N
1503316715.5,286046993.9,N
1503316735.3,286046995.1,N
1503316755.2,286047000.4,N
1503316775.0,286047001.2,N
1503316775.9,286047001.2,N
1503316795.7,286046997.7,N
